Вернуться в каталог

STARLINK-11307

АктивенСвязьVLEO
NORAD 61210·PAYLOAD·🇺🇸 United States

Запущен Sep 20, 2024 с Vandenberg Space Force Base

Loading…

Ближайшие Пролёты (ближайшие 24 часа)

TLE

СвежийSource: CelesTrak SupGP

Эпоха: Sep 15, 2026, 02:25 UTC

1 61210C 24171L   26258.10118056  .00037405  00000+0  30810-3 0  2581
2 61210  53.1563 322.8856 0001137  83.5752 256.5119 15.69692221    14

Отслеживайте STARLINK-11307 в реальном времени с AllMySat

Download on the App Store